Date,TemperatureHighF,TemperatureAvgF,TemperatureLowF,DewpointHighF,DewpointAvgF,DewpointLowF,HumidityHigh,HumidityAvg,HumidityLow,PressureMaxIn,PressureMinIn,WindSpeedMaxMPH,WindSpeedAvgMPH,GustSpeedMaxMPH,PrecipitationSumIn
2014-1-1,50,37,29,35,30,27,96,80,43,30.36,30.09,6,0,6,0.00
2014-1-2,47,42,34,46,39,31,100,92,80,30.09,29.52,14,0,14,0.30
2014-1-3,43,30,19,39,17,10,98,61,36,30.41,29.60,22,2,22,0.00
2014-1-4,36,28,17,28,18,14,92,70,43,30.45,30.22,4,0,4,0.00
2014-1-5,54,45,35,50,38,25,95,78,66,30.22,29.69,7,0,7,0.00
2014-1-6,60,43,17,58,34,-4,98,71,34,30.14,29.55,20,3,20,0.16
2014-1-7,26,16,9,10,1,-5,84,51,32,30.45,30.13,15,2,18,0.00
2014-1-8,43,24,12,19,14,9,90,67,30,30.56,30.43,7,0,7,0.00
2014-1-9,52,34,22,34,24,14,95,68,27,30.52,30.40,4,0,4,0.00
2014-1-10,45,42,39,45,40,32,98,91,67,30.40,30.02,4,0,4,0.89
2014-1-11,67,53,44,66,53,44,100,98,91,30.02,29.50,27,1,27,0.56
2014-1-12,58,46,32,53,38,31,96,74,41,30.10,29.60,14,1,14,0.00
2014-1-13,61,44,29,44,37,28,97,80,49,30.11,29.89,10,0,10,0.00
2014-1-14,54,46,34,50,45,33,99,96,80,29.90,29.71,7,0,7,0.56
2014-1-15,58,42,33,48,38,32,99,87,57,29.91,29.75,11,1,12,0.01
2014-1-16,45,36,27,34,30,24,96,81,45,29.96,29.85,10,1,10,0.09
2014-1-17,55,38,24,38,30,23,95,78,49,29.96,29.78,14,0,14,0.00
2014-1-18,42,32,24,36,20,12,92,62,38,30.00,29.77,17,2,22,0.00
2014-1-19,53,38,27,32,27,22,91,66,41,29.96,29.83,15,1,15,0.00
2014-1-20,64,41,27,34,30,25,95,71,30,29.85,29.70,10,0,10,0.00
2014-1-21,53,37,28,37,31,24,95,82,54,29.77,29.45,14,1,14,0.06
2014-1-22,31,26,18,26,15,7,90,66,37,30.04,29.76,11,1,12,0.00
2014-1-23,38,26,14,19,13,5,91,63,36,30.37,30.03,13,1,13,0.00
2014-1-24,27,18,12,8,2,-2,80,50,29,30.56,30.21,12,1,12,0.00
2014-1-25,42,29,11,21,12,4,78,51,35,30.21,29.59,17,2,17,0.00
2014-1-26,52,37,20,30,23,17,88,59,29,29.91,29.74,11,1,11,0.00
2014-1-27,64,49,35,41,34,9,75,56,35,30.03,29.69,13,1,13,0.00
2014-1-28,35,28,19,19,8,0,89,47,29,30.25,30.02,12,2,12,0.00
2014-1-29,29,22,11,16,10,0,88,65,31,30.32,30.10,11,1,11,0.05
2014-1-30,38,19,3,16,8,0,99,65,26,30.38,30.17,7,0,7,0.03
2014-1-31,52,28,11,28,17,9,90,69,28,30.18,30.07,4,0,4,0.04
2014-2-1,57,38,22,42,29,19,94,74,33,30.19,30.03,6,0,6,0.00
2014-2-2,63,49,40,52,45,39,98,87,63,30.04,29.94,12,1,12,0.00
2014-2-3,64,50,40,63,48,37,99,92,82,30.19,29.81,7,1,13,0.23
2014-2-4,41,39,38,38,37,36,97,92,87,30.33,30.02,10,1,10,0.37
2014-2-5,53,43,39,50,41,33,98,93,68,30.02,29.72,11,1,11,0.08
2014-2-6,43,37,31,33,29,25,88,71,53,30.26,30.00,9,1,9,0.01
2014-2-7,51,39,31,37,32,30,96,80,52,30.28,30.17,4,0,7,0.00
2014-2-8,50,38,29,35,32,28,95,81,54,30.22,30.04,6,0,6,0.00
2014-2-9,58,40,27,44,35,26,96,85,57,30.11,29.89,4,0,6,0.00
2014-2-10,42,36,33,37,33,28,100,89,59,30.18,29.93,11,0,11,0.06
2014-2-11,36,32,29,35,26,18,97,78,62,30.33,30.16,11,1,11,0.00
2014-2-12,29,26,24,28,20,15,95,78,60,30.36,29.72,13,2,13,0.00
2014-2-13,38,33,29,35,31,28,97,95,82,29.72,29.38,10,1,10,0.26
2014-2-14,59,40,27,35,31,26,96,75,31,29.74,29.60,11,1,11,0.57
2014-2-15,47,38,32,40,31,18,98,78,41,30.00,29.48,22,2,22,0.29
2014-2-16,53,38,29,35,26,18,92,64,45,30.10,29.94,11,1,11,0.00
2014-2-17,45,35,27,31,27,24,93,72,46,30.33,30.10,11,1,11,0.00
2014-2-18,65,46,36,40,32,23,89,64,22,30.15,30.01,11,1,11,0.00
2014-2-19,72,54,38,62,51,32,99,89,65,30.02,29.81,18,1,18,0.49
2014-2-20,74,59,47,61,52,45,98,79,59,30.11,29.90,9,1,12,0.00
2014-2-21,71,59,37,65,56,36,98,91,75,29.96,29.70,25,1,25,0.02
2014-2-22,63,44,31,47,35,30,98,76,28,30.12,29.95,5,0,7,0.00
2014-2-23,68,48,32,44,38,30,95,72,36,30.04,29.80,12,0,12,0.00
2014-2-24,60,48,33,46,33,25,94,61,28,30.07,29.80,18,1,18,0.00
2014-2-25,57,40,27,33,26,18,92,62,28,30.06,29.86,7,0,7,0.00
2014-2-26,48,39,28,30,27,22,84,63,43,29.91,29.71,4,0,11,0.00
2014-2-27,55,36,21,27,21,16,91,60,24,29.94,29.68,15,1,15,0.00
2014-2-28,46,35,29,24,18,13,72,51,34,30.26,29.94,9,1,12,0.00
2014-3-1,56,39,28,39,29,18,94,67,50,30.30,30.15,6,0,6,0.00
2014-3-2,71,51,30,50,41,29,97,72,46,30.17,29.82,14,0,14,0.00
2014-3-3,60,40,22,50,36,16,95,86,69,30.23,29.74,18,2,18,0.32
2014-3-4,39,28,17,22,16,10,77,60,41,30.30,30.14,14,1,14,0.05
2014-3-5,46,36,28,26,22,17,83,58,43,30.23,30.06,5,0,6,0.00
2014-3-6,42,36,31,34,26,18,100,71,52,30.30,30.02,12,2,17,0.56
2014-3-7,38,35,31,37,34,30,100,95,92,30.02,29.81,13,2,14,1.52
2014-3-8,68,46,28,50,39,27,97,80,42,30.02,29.88,11,0,11,0.00
2014-3-9,66,51,36,46,40,35,98,72,36,30.01,29.89,10,1,13,0.00
2014-3-10,74,51,30,43,36,29,97,64,22,29.95,29.72,9,1,14,0.00
2014-3-11,79,58,38,47,42,36,95,63,27,29.74,29.58,10,0,10,0.00
2014-3-12,70,57,44,61,50,30,89,79,58,29.61,29.12,18,2,28,0.13
2014-3-13,46,39,27,31,21,11,81,50,25,30.17,29.55,19,2,19,0.00
2014-3-14,62,42,22,35,24,19,92,56,22,30.27,30.02,13,1,13,0.00
2014-3-15,72,56,44,43,40,35,84,59,30,30.02,29.86,19,1,19,0.02
2014-3-16,56,46,38,48,40,34,96,83,44,29.97,29.74,12,1,12,0.10
2014-3-17,38,34,32,37,32,30,100,94,92,29.92,29.75,12,1,12,0.33
2014-3-18,38,34,31,37,33,30,96,95,94,30.11,29.88,8,0,8,0.10
2014-3-19,49,41,36,47,40,35,97,95,91,30.11,29.92,6,0,6,0.02
2014-3-20,66,50,37,49,38,30,98,72,27,29.97,29.86,18,1,18,0.00
2014-3-21,70,49,29,41,35,28,95,64,28,30.09,29.97,12,0,12,0.00
2014-3-22,76,58,43,49,43,38,90,64,31,30.00,29.84,14,1,14,0.00
2014-3-23,59,45,33,45,40,32,97,85,48,30.08,29.84,14,1,14,0.10
2014-3-24,51,39,29,37,31,25,97,75,39,30.22,30.03,10,0,10,0.00
2014-3-25,45,39,32,40,34,28,93,82,63,30.03,29.70,10,0,10,0.07
2014-3-26,48,37,28,28,21,16,83,55,30,30.26,29.89,20,2,20,0.01
2014-3-27,60,41,22,37,25,20,93,59,27,30.40,30.21,5,0,11,0.00
2014-3-28,70,54,37,60,49,35,98,86,66,30.22,30.02,15,0,15,0.21
2014-3-29,67,60,56,66,60,55,100,99,95,30.04,29.47,4,0,12,0.60
2014-3-30,60,49,42,60,39,32,99,68,49,29.89,29.47,20,3,20,0.08
2014-3-31,74,54,37,42,32,25,79,47,20,30.02,29.88,9,1,15,0.00
2014-4-1,81,56,36,48,40,34,95,61,22,30.08,29.91,7,0,12,0.00
2014-4-2,88,64,44,51,45,40,86,56,20,30.01,29.89,16,1,16,0.00
2014-4-3,79,60,46,59,50,43,91,72,44,30.01,29.81,8,0,8,0.00
2014-4-4,82,66,48,61,55,47,97,73,36,29.82,29.65,19,1,19,0.00
2014-4-5,72,62,51,58,45,34,95,57,30,29.99,29.70,12,1,12,0.00
2014-4-6,60,54,47,43,37,31,70,53,41,30.13,29.99,14,1,14,0.00
2014-4-7,61,50,43,60,48,40,99,92,57,30.02,29.58,9,0,9,0.00
2014-4-8,68,62,55,63,55,41,99,80,52,29.60,29.50,11,1,11,0.01
2014-4-9,69,56,43,50,44,40,98,69,36,30.03,29.60,15,1,15,0.04
2014-4-10,76,55,36,47,42,35,97,69,31,30.20,30.03,18,1,18,0.00
2014-4-11,79,62,44,53,48,42,93,64,33,30.14,29.97,15,1,15,0.00
2014-4-12,82,65,49,58,52,48,96,68,34,30.14,30.01,10,0,10,0.00
2014-4-13,82,67,51,64,57,50,97,73,49,30.13,29.98,11,1,11,0.00
2014-4-14,77,66,57,64,60,55,98,83,57,30.02,29.75,11,1,11,0.22
2014-4-15,71,62,40,68,60,35,99,94,69,29.94,29.50,20,1,20,0.89
2014-4-16,55,43,33,38,30,26,94,63,36,30.38,29.93,13,1,13,0.00
2014-4-17,64,47,31,44,36,29,96,70,34,30.49,30.33,13,1,13,0.00
2014-4-18,58,51,40,44,41,38,94,70,55,30.38,30.15,11,2,11,0.00
2014-4-19,58,58,58,43,43,43,57,57,57,30.15,30.06,3,3,3,0.00
2014-4-20,69,60,54,50,44,39,59,56,47,30.18,30.09,10,2,14,0.00
2014-4-21,75,55,41,47,39,30,85,60,20,30.12,29.84,7,0,7,0.00
2014-4-22,82,62,44,59,51,42,94,71,37,29.84,29.59,6,1,14,0.00
2014-4-23,72,61,45,57,44,33,94,59,26,29.89,29.61,11,1,17,0.00
2014-4-24,73,54,37,50,42,35,96,68,33,30.08,29.89,8,0,8,0.00
2014-4-25,80,59,44,69,55,43,97,87,63,29.93,29.57,15,0,15,0.07
2014-4-26,81,68,46,55,51,46,97,59,32,29.93,29.76,12,1,12,0.00
2014-4-27,85,66,49,65,54,47,96,69,34,29.93,29.82,6,0,6,0.00
2014-4-28,70,61,56,60,56,51,90,82,70,29.92,29.81,9,0,9,0.00
2014-4-29,62,57,54,60,56,53,98,95,90,29.95,29.83,4,0,6,0.02
2014-4-30,76,70,60,74,68,59,99,94,80,29.95,29.79,7,1,17,0.59
2014-5-1,78,70,64,68,64,61,98,83,57,29.82,29.68,13,1,13,0.00
2014-5-2,69,60,50,62,51,44,96,75,45,29.88,29.74,9,0,9,0.00
2014-5-3,76,62,50,57,51,47,97,72,38,29.84,29.76,14,1,14,0.00
2014-5-4,84,66,47,59,52,46,96,66,36,29.93,29.72,18,1,18,0.00
2014-5-5,78,64,53,62,55,50,96,74,52,29.94,29.75,8,0,8,0.00
2014-5-6,86,68,55,66,59,53,95,77,39,29.89,29.76,7,0,7,0.00
2014-5-7,75,66,60,68,63,59,97,90,75,30.06,29.89,6,0,6,0.00
2014-5-8,89,71,54,67,60,53,98,73,38,30.10,29.98,15,1,15,0.00
2014-5-9,88,72,58,71,64,57,98,78,44,30.08,29.92,12,1,12,0.03
2014-5-10,84,68,64,73,64,60,98,88,58,30.03,29.90,12,0,12,0.00
2014-5-11,84,70,59,69,63,58,97,81,51,30.06,29.96,6,0,6,0.00
2014-5-12,88,67,57,72,62,56,98,86,49,30.11,30.03,7,0,7,0.00
2014-5-13,90,75,63,74,69,62,100,85,49,30.07,29.97,1,0,7,0.00
2014-5-14,87,73,65,74,67,64,98,83,55,30.08,29.95,7,0,10,0.00
2014-5-15,76,69,66,71,68,64,99,94,83,30.03,29.74,12,0,12,3.69
2014-5-16,72,63,54,69,56,50,99,79,49,29.97,29.73,12,1,12,0.09
2014-5-17,70,59,45,57,48,42,94,70,41,30.09,29.96,16,1,16,0.00
2014-5-18,66,58,48,55,51,47,96,80,52,30.16,30.08,4,0,7,0.00
2014-5-19,73,57,43,57,49,42,97,78,42,30.24,30.13,6,0,6,0.00
2014-5-20,78,62,46,62,55,45,97,79,53,30.21,30.01,11,1,11,0.00
2014-5-21,86,72,61,70,63,58,93,75,51,30.01,29.84,8,1,12,0.00
2014-5-22,86,74,65,71,67,63,96,81,52,29.86,29.75,7,0,13,0.00
2014-5-23,82,72,61,68,64,52,98,78,51,29.93,29.82,10,0,10,0.00
2014-5-24,79,66,52,61,55,50,95,69,43,30.05,29.91,6,0,6,0.00
2014-5-25,80,66,52,67,59,51,97,80,47,30.12,30.03,7,0,7,0.00
2014-5-26,86,71,56,69,64,56,97,81,53,30.13,29.97,10,1,10,0.00
2014-5-27,87,73,65,74,68,64,98,86,58,30.02,29.87,17,0,17,0.03
2014-5-28,87,72,62,75,68,62,99,88,58,29.92,29.84,6,0,6,0.00
2014-5-29,77,71,64,70,67,62,98,88,77,30.02,29.89,6,0,10,0.00
2014-5-30,78,70,65,71,67,64,97,89,75,30.05,29.95,5,0,8,0.00
2014-5-31,82,71,61,67,63,58,98,79,46,30.12,30.02,4,0,7,0.01
2014-6-1,78,66,55,59,56,51,96,73,42,30.25,30.12,9,0,9,0.00
2014-6-2,80,60,50,63,55,49,96,87,51,30.22,30.03,5,0,7,0.00
2014-6-3,85,69,54,73,63,52,97,82,57,30.05,29.84,10,0,10,0.00
2014-6-4,90,75,63,73,68,62,98,82,54,29.85,29.68,10,0,10,0.00
2014-6-5,90,77,71,74,70,66,90,80,56,29.75,29.62,7,1,13,0.00
2014-6-6,83,74,66,69,65,60,95,75,57,29.87,29.73,6,0,6,0.00
2014-6-7,84,72,60,70,65,59,97,82,52,29.95,29.85,6,0,6,0.00
2014-6-8,84,70,61,72,66,60,97,88,59,29.90,29.78,5,0,10,0.00
2014-6-9,85,75,68,76,70,65,97,86,66,29.85,29.75,7,0,11,0.00
2014-6-10,91,77,66,77,72,66,99,86,54,29.86,29.78,7,0,7,0.00
2014-6-11,90,75,68,78,71,68,98,88,55,29.87,29.72,13,0,13,0.54
2014-6-12,82,72,67,76,70,66,99,94,75,29.84,29.72,6,0,9,0.06
2014-6-13,84,74,66,77,71,66,99,90,65,29.78,29.69,11,0,11,0.09
2014-6-14,85,74,61,72,67,60,98,81,54,29.98,29.78,7,0,7,0.00
2014-6-15,85,70,55,71,64,54,98,84,48,30.11,29.98,6,0,6,0.00
2014-6-16,92,78,66,77,71,65,99,82,50,30.10,29.97,10,0,10,0.11
2014-6-17,92,78,68,79,72,67,99,84,55,30.07,29.96,9,0,9,0.01
2014-6-18,94,80,68,76,72,67,98,80,47,30.03,29.94,8,0,8,0.00
2014-6-19,95,82,69,77,72,68,97,74,49,30.01,29.88,9,0,9,0.00
2014-6-20,89,77,69,78,73,68,99,88,62,29.94,29.82,10,0,10,0.29
2014-6-21,88,76,68,79,73,68,100,93,64,29.86,29.70,10,0,10,0.08
2014-6-22,82,74,69,75,72,69,99,91,73,29.89,29.72,6,0,6,0.00
2014-6-23,84,74,65,72,68,64,98,84,62,30.03,29.88,6,0,6,0.00
2014-6-24,86,75,66,75,70,65,98,85,66,30.05,29.91,6,0,6,0.00
2014-6-25,92,79,71,78,73,70,98,84,53,29.94,29.78,3,0,6,0.00
2014-6-26,92,79,68,75,71,67,98,78,45,29.89,29.80,10,0,10,0.00
2014-6-27,87,77,70,76,72,69,96,85,65,30.02,29.88,9,0,9,0.00
2014-6-28,86,77,69,73,70,62,98,81,58,30.13,30.02,10,1,10,0.00
2014-6-29,86,73,60,68,63,59,96,73,43,30.15,30.02,6,0,6,0.00
2014-6-30,89,75,63,75,69,62,97,82,54,30.04,29.87,5,0,6,0.00
2014-7-1,91,80,71,77,73,69,97,82,59,29.91,29.78,10,0,10,0.00
2014-7-2,95,84,73,79,74,70,93,75,54,29.87,29.81,10,1,10,0.00
2014-7-3,88,79,72,80,74,68,97,86,70,29.91,29.75,8,0,8,0.02
2014-7-4,86,77,71,72,65,57,87,67,47,30.08,29.78,9,0,9,0.00
2014-7-5,84,72,59,61,57,54,91,62,38,30.20,30.07,11,0,11,0.00
2014-7-6,88,72,57,68,62,56,96,75,45,30.11,29.93,6,0,6,0.00
2014-7-7,93,77,63,75,67,62,97,75,42,29.98,29.83,11,1,11,0.00
2014-7-8,96,84,70,74,68,63,96,64,34,29.93,29.77,9,1,18,0.00
2014-7-9,94,79,73,74,71,67,98,78,50,29.94,29.82,10,0,10,0.31
2014-7-10,85,75,70,76,72,69,99,92,72,30.01,29.90,10,0,10,1.00
2014-7-11,83,74,68,74,71,68,99,89,67,30.11,30.01,5,0,5,0.00
2014-7-12,89,77,66,75,70,65,99,82,53,30.13,30.03,6,0,6,0.00
2014-7-13,92,79,67,76,71,66,99,78,44,30.06,29.89,9,0,9,0.00
2014-7-14,95,82,74,80,74,70,94,78,51,29.93,29.75,6,0,10,0.00
2014-7-15,92,80,71,79,74,69,98,84,61,29.79,29.63,10,0,10,4.27
2014-7-16,80,74,66,71,69,64,99,85,64,29.85,29.70,10,0,10,0.04
2014-7-17,83,72,62,70,65,59,97,80,54,30.01,29.84,4,0,4,0.00
2014-7-18,67,66,66,65,64,64,94,93,93,30.01,30.01,0,0,0,0.00
2014-7-19,82,74,66,71,66,60,94,78,47,30.09,29.99,8,0,8,0.00
2014-7-20,83,73,67,76,70,64,97,90,76,30.05,29.95,3,0,5,0.58
2014-7-21,77,74,72,77,73,71,99,97,94,30.07,29.96,7,0,7,1.17
2014-7-22,84,76,70,78,73,69,99,93,76,30.08,29.98,6,0,6,0.00
2014-7-23,90,79,70,79,74,69,99,86,66,30.01,29.82,10,0,10,0.00
2014-7-24,89,78,70,80,74,68,98,88,67,29.87,29.71,12,0,12,0.74
2014-7-25,83,74,67,75,70,66,99,89,70,29.98,29.86,6,0,6,0.00
2014-7-26,91,77,68,79,73,66,99,88,63,29.95,29.83,6,0,6,0.00
2014-7-27,89,77,69,79,73,68,99,89,68,29.88,29.66,11,0,11,0.19
2014-7-28,90,80,70,75,69,62,90,70,51,29.78,29.62,19,1,19,0.00
2014-7-29,83,72,62,69,63,60,94,76,51,29.90,29.77,7,0,7,0.00
2014-7-30,83,71,63,72,66,61,96,84,64,29.99,29.89,5,0,5,0.00
2014-7-31,82,72,65,74,69,64,98,89,69,30.07,29.98,3,0,6,1.06
2014-8-1,73,68,64,72,67,64,99,97,90,30.07,29.98,10,0,10,1.06
2014-8-2,70,67,64,69,66,64,98,97,96,30.04,29.98,4,0,4,0.11
2014-8-3,80,71,67,74,69,66,99,93,78,30.06,29.95,2,0,5,0.01
2014-8-4,85,74,67,74,70,66,100,88,61,30.03,29.93,6,0,6,0.00
2014-8-5,89,76,65,77,70,64,99,86,61,29.98,29.87,5,0,5,0.00
2014-8-6,92,78,70,77,71,67,98,81,49,29.90,29.81,7,0,7,0.00
2014-8-7,88,76,67,77,71,66,99,85,64,29.94,29.82,6,0,6,0.00
2014-8-8,80,73,66,74,70,65,99,91,70,30.03,29.93,5,0,5,0.00
2014-8-9,72,67,65,71,66,64,99,97,94,30.04,29.96,6,0,6,2.56
2014-8-10,78,71,66,74,69,65,99,95,80,30.04,29.95,7,0,7,0.04
2014-8-11,83,74,70,76,71,69,98,93,75,29.99,29.86,10,0,10,1.41
2014-8-12,85,75,70,80,73,70,99,96,83,29.88,29.67,5,0,5,0.46
2014-8-13,81,74,65,72,69,63,99,86,62,29.89,29.72,10,0,10,0.00
2014-8-14,81,70,60,69,63,58,96,80,50,29.97,29.86,6,0,6,0.00
2014-8-15,85,72,60,75,67,59,98,85,64,29.95,29.85,5,0,5,0.00
2014-8-16,87,76,67,76,71,66,98,85,61,29.94,29.87,0,0,4,0.00
2014-8-17,88,77,68,79,72,67,98,87,61,29.92,29.84,5,0,5,0.00
2014-8-18,87,76,71,79,73,70,99,92,72,29.86,29.67,8,0,8,0.35
2014-8-19,86,76,68,78,73,67,99,90,70,29.80,29.68,5,0,6,0.01
2014-8-20,91,78,70,81,74,69,99,89,66,29.92,29.78,4,0,4,0.00
2014-8-21,92,80,71,81,75,70,99,85,57,29.99,29.88,6,0,6,0.00
2014-8-22,93,79,70,81,74,69,98,86,61,29.94,29.84,9,0,9,0.00
2014-8-23,86,78,73,79,75,72,98,92,73,29.89,29.81,10,0,10,0.57
2014-8-24,79,73,66,72,69,63,94,86,70,30.03,29.87,11,1,11,0.00
2014-8-25,80,70,59,69,64,58,98,83,60,30.04,29.98,10,0,10,0.00
2014-8-26,82,71,60,70,65,59,98,83,59,30.07,29.98,10,0,10,0.00
2014-8-27,88,72,57,72,65,56,98,80,50,29.99,29.87,6,0,6,0.00
2014-8-28,88,74,62,79,70,61,98,87,66,29.92,29.85,4,0,4,0.00
2014-8-29,82,76,72,77,73,71,98,91,78,30.08,29.92,5,0,5,0.00
2014-8-30,88,78,72,79,74,70,99,87,63,30.13,30.00,4,0,4,0.00
2014-8-31,90,79,71,80,74,70,98,87,63,30.10,29.95,3,0,5,0.00
2014-9-1,94,80,71,81,74,70,99,86,54,30.01,29.91,5,0,5,0.00
2014-9-2,95,81,69,81,74,68,98,81,53,29.98,29.84,6,0,6,0.01
2014-9-3,90,78,70,79,73,69,98,84,63,30.04,29.88,4,0,5,0.00
2014-9-4,90,78,71,80,74,70,98,88,67,30.11,29.98,3,0,4,0.00
2014-9-5,90,78,70,79,73,68,99,86,63,30.11,29.97,5,0,5,0.00
2014-9-6,90,78,68,78,73,67,99,86,64,30.00,29.83,4,0,5,0.00
2014-9-7,80,75,71,74,72,68,97,89,80,30.00,29.87,11,0,11,0.00
2014-9-8,72,69,68,71,68,67,99,97,88,30.01,29.92,8,0,9,0.95
2014-9-9,75,70,65,71,68,65,99,94,87,30.04,29.95,5,0,5,0.14
2014-9-10,80,72,68,73,69,66,98,91,73,30.05,29.94,3,0,4,0.00
2014-9-11,87,75,64,79,71,64,99,90,73,29.96,29.84,6,0,7,0.00
2014-9-12,81,74,70,76,72,68,99,91,80,30.00,29.88,7,0,9,0.00
2014-9-13,80,73,69,77,71,65,99,95,85,30.08,29.94,4,0,4,0.15
2014-9-14,70,67,63,66,62,58,93,84,74,30.18,30.08,5,0,9,0.00
2014-9-15,73,68,63,69,65,62,96,92,83,30.16,30.01,4,0,4,0.00
2014-9-16,81,72,66,73,68,65,99,88,68,30.02,29.83,4,0,5,0.11
2014-9-17,67,67,66,66,66,66,98,98,98,29.88,29.86,0,0,1,0.00
2014-9-18,78,70,60,71,66,59,98,90,66,29.97,29.84,1,0,7,0.00
2014-9-19,79,69,62,70,64,60,97,87,61,30.15,29.97,8,0,8,0.00
2014-9-20,78,66,58,68,62,56,98,86,59,30.15,29.90,9,0,9,0.00
2014-9-21,84,74,61,74,68,60,98,81,60,29.91,29.70,6,0,6,0.01
2014-9-22,73,68,62,69,62,55,97,81,59,30.06,29.77,7,0,7,0.00
2014-9-23,63,59,55,60,54,50,95,84,74,30.24,30.06,7,0,11,0.07
2014-9-24,63,58,55,63,58,54,99,98,95,30.23,30.13,7,0,7,1.60
2014-9-25,68,65,63,66,64,62,100,95,87,30.17,30.09,7,0,7,0.06
2014-9-26,73,66,60,68,64,58,98,92,77,30.13,30.06,6,0,9,0.00
2014-9-27,75,64,55,68,60,54,99,89,71,30.15,30.07,7,0,7,0.00
2014-9-28,75,64,53,69,60,52,99,90,69,30.12,29.99,9,0,9,0.00
2014-9-29,70,65,62,66,64,61,99,94,80,29.99,29.87,2,0,3,0.06
2014-9-30,73,66,60,69,64,59,99,95,85,29.88,29.77,3,0,4,0.00
2014-10-1,75,65,57,69,63,56,99,93,78,29.95,29.83,4,0,4,0.01
2014-10-2,80,68,60,73,65,59,99,92,72,30.03,29.93,5,0,5,0.00
2014-10-3,81,69,61,70,66,60,99,91,63,29.97,29.67,6,0,7,0.11
2014-10-4,71,65,47,70,56,40,99,76,43,29.83,29.59,13,0,13,0.00
2014-10-5,64,50,40,51,43,38,100,78,46,29.96,29.80,5,0,5,0.00
2014-10-6,73,56,42,59,49,40,98,81,51,30.03,29.92,4,0,6,0.00
2014-10-7,77,63,51,64,57,50,98,83,56,30.06,29.90,6,0,6,0.00
2014-10-8,81,68,59,70,63,57,98,86,57,29.97,29.84,9,0,9,0.00
2014-10-9,76,62,50,64,56,48,98,82,52,30.09,29.96,6,0,6,0.00
2014-10-10,81,68,55,72,64,54,99,88,70,30.04,29.89,9,0,9,0.42
2014-10-11,82,69,60,75,67,58,100,93,72,30.03,29.83,14,0,14,0.82
2014-10-12,61,59,58,61,58,56,99,97,93,30.15,30.01,5,0,5,0.06
2014-10-13,78,68,61,73,66,61,100,95,81,30.17,30.05,3,0,3,0.00
2014-10-14,78,73,68,75,72,67,99,96,87,30.06,29.80,10,0,10,0.29
2014-10-15,73,65,56,72,63,54,97,94,83,29.82,29.71,5,0,5,0.91
2014-10-16,68,58,51,62,55,50,99,91,70,29.78,29.68,4,0,8,0.01
2014-10-17,53,52,52,51,51,50,96,95,95,29.78,29.77,0,0,0,0.00
2014-10-18,73,59,51,61,54,48,99,83,58,29.83,29.67,1,0,11,0.00
2014-10-19,64,53,44,54,47,42,96,82,54,30.06,29.83,11,0,11,0.00
2014-10-20,68,52,38,57,47,37,98,85,56,30.10,29.90,5,0,5,0.00
2014-10-21,71,59,48,60,52,44,99,82,55,29.90,29.74,9,0,9,0.00
2014-10-22,66,55,48,50,46,43,84,71,54,29.96,29.84,12,0,12,0.00
2014-10-23,67,53,43,54,46,41,94,79,55,29.96,29.84,9,0,9,0.00
2014-10-24,66,54,45,59,48,42,93,83,57,30.00,29.88,5,0,5,0.00
2014-10-25,68,52,42,56,47,40,98,84,48,29.96,29.79,2,0,5,0.00
2014-10-26,75,59,46,58,50,44,96,77,40,29.90,29.74,10,0,10,0.00
2014-10-27,73,53,38,58,46,37,98,80,40,30.05,29.90,3,0,3,0.00
2014-10-28,81,60,47,67,56,45,99,87,55,30.07,29.95,5,0,5,0.00
2014-10-29,77,62,55,65,60,52,99,91,60,29.95,29.80,11,0,11,0.13
2014-10-30,64,52,44,53,48,42,98,88,54,29.98,29.88,7,0,7,0.00
2014-10-31,60,52,42,53,47,39,96,83,62,29.91,29.67,5,0,6,0.01
2014-11-1,50,48,44,48,44,38,97,89,71,29.88,29.60,11,0,11,0.67
2014-11-2,52,43,34,38,32,29,87,66,44,30.25,29.87,12,0,12,0.00
2014-11-3,63,43,30,46,34,27,95,74,31,30.37,30.24,6,0,6,0.00
2014-11-4,66,49,36,50,42,34,96,79,39,30.28,30.16,5,0,5,0.00
2014-11-5,70,55,44,58,50,42,98,85,58,30.22,30.05,6,0,6,0.00
2014-11-6,67,59,50,64,57,42,99,92,71,30.05,29.64,13,0,13,0.16
2014-11-7,59,49,40,44,41,36,92,75,50,29.99,29.77,13,0,13,0.00
2014-11-8,58,44,31,47,38,30,97,83,57,30.03,29.89,5,0,5,0.01
2014-11-9,60,47,38,51,43,36,98,85,56,29.97,29.85,5,0,5,0.00
2014-11-10,64,46,33,52,42,32,98,86,56,30.08,29.97,6,0,6,0.00
2014-11-11,71,54,41,63,50,39,100,89,71,29.98,29.81,7,0,7,0.00
2014-11-12,74,56,43,59,51,42,99,84,51,29.95,29.82,6,0,6,0.00
2014-11-13,57,52,46,48,43,38,78,71,66,29.99,29.89,6,0,9,0.00
2014-11-14,46,39,30,38,27,18,85,63,44,30.27,29.96,5,0,10,0.00
2014-11-15,44,33,25,29,22,18,88,65,40,30.40,30.26,6,0,6,0.00
2014-11-16,48,39,26,42,33,23,99,82,54,30.32,29.99,2,0,2,0.03
2014-11-17,64,52,43,64,50,36,99,94,71,29.99,29.51,12,0,12,0.38
2014-11-18,44,31,20,36,19,14,90,62,40,30.26,29.80,13,0,13,0.00
2014-11-19,43,32,18,26,20,15,92,66,36,30.37,30.16,5,0,5,0.00
2014-11-20,58,39,25,36,28,22,91,69,40,30.16,29.95,8,0,8,0.00
2014-11-21,48,35,26,29,23,17,95,68,30,30.48,30.09,11,0,11,0.00
2014-11-22,52,39,20,30,25,18,94,62,28,30.52,30.25,5,0,5,0.00
2014-11-23,62,44,31,62,41,27,99,89,77,30.26,29.65,4,0,10,0.70
2014-11-24,72,64,56,66,62,56,99,93,78,29.83,29.64,8,0,8,0.02
2014-11-25,64,58,48,63,54,46,97,88,66,30.04,29.79,5,0,5,0.09
2014-11-26,50,44,34,49,43,32,98,95,91,30.00,29.80,11,0,11,1.50
2014-11-27,48,41,31,43,38,28,100,89,73,30.19,29.91,9,0,9,0.01
2014-11-28,44,33,26,30,26,23,93,76,48,30.32,30.18,9,0,9,0.00
2014-11-29,53,37,26,38,30,24,96,80,47,30.28,30.16,4,0,4,0.00
2014-11-30,65,45,30,51,40,28,98,83,56,30.25,30.13,5,0,10,0.00
2014-12-1,73,52,39,57,47,37,98,85,55,30.28,30.17,4,0,4,0.00
2014-12-2,51,48,44,50,46,42,98,92,82,30.37,30.23,7,0,7,0.01
2014-12-3,58,49,43,55,47,42,98,95,91,30.26,30.08,3,0,3,0.00
2014-12-4,55,48,41,51,43,38,98,83,58,30.35,30.18,7,0,7,0.00
2014-12-5,52,47,41,45,41,38,91,81,70,30.41,30.27,6,0,6,0.01
2014-12-6,56,51,46,55,49,43,98,93,86,30.27,29.96,10,0,10,0.13
2014-12-7,53,47,38,50,35,26,92,66,49,30.37,30.02,18,2,18,0.01
2014-12-8,45,40,37,37,32,25,95,73,60,30.36,30.07,10,1,10,0.19
2014-12-9,46,41,36,44,40,35,100,95,90,30.08,29.84,9,0,9,0.23
2014-12-10,50,42,30,39,34,27,90,74,50,29.93,29.85,11,1,16,0.00
2014-12-11,48,35,25,29,26,23,94,73,40,30.07,29.91,13,0,13,0.00
2014-12-12,56,38,24,31,25,21,92,64,30,30.16,30.03,11,0,14,0.00
2014-12-13,60,42,28,35,29,24,88,63,32,30.08,29.95,5,0,8,0.00
2014-12-14,57,40,27,41,33,25,95,78,50,30.01,29.92,6,0,6,0.00
2014-12-15,58,41,29,44,36,27,97,84,56,30.07,29.97,4,0,4,0.00
2014-12-16,51,42,32,50,41,30,98,97,93,30.01,29.81,4,0,4,0.38
2014-12-17,59,46,36,45,40,34,98,81,53,30.04,29.92,12,0,12,0.00
2014-12-18,51,39,30,38,33,28,97,80,48,30.12,29.99,6,0,6,0.01
2014-12-19,54,43,34,37,33,27,91,71,39,30.14,30.02,4,0,10,0.00
2014-12-20,39,37,34,37,34,31,94,90,82,30.23,30.13,6,0,6,0.04
2014-12-21,48,42,38,41,38,37,94,86,74,30.25,30.13,7,0,7,0.01
2014-12-22,43,38,37,38,37,35,100,96,80,30.13,29.96,9,0,10,0.45
2014-12-23,44,40,38,43,39,37,98,97,97,30.02,29.92,2,0,2,0.02
2014-12-24,63,60,45,63,60,44,100,100,98,29.84,29.58,9,0,9,1.52